This demonstration page uses our WeatherBlox Daily Observations layout. Learn more.

Left ArrowRight Arrow

30.21309, -93.2044

Hourly Observations for May 3, 2022

Temp ( °F °C ) Dew Point ( °F °C ) Humidity (%) Winds ( mph kmh ) Pressure ( in mb ) Visibility ( mi km ) Precip ( " mm )
12:15 am 00:15 Mostly Cloudy 73 22.6 69 20.7 89 89 S 8 13 29.92 1013 10 16 0.00 0.00
12:35 am 00:35 Mostly Cloudy 71 21.9 69 20.3 91 91 SSE 6 9 29.93 1014 10 16 0.00 0.00
12:55 am 00:55 Cloudy 71 21.5 69 20.3 93 93 SSE 7 11 29.92 1013 10 16 0.00 0.00
1:15 am 01:15 Cloudy 72 22.2 69 20.8 92 92 S 8 13 29.92 1013 10 16 0.00 0.00
1:35 am 01:35 Cloudy 73 22.6 70 20.9 90 90 SSE 8 13 29.92 1013 10 16 0.00 0.00
1:55 am 01:55 Mostly Cloudy 73 22.6 70 20.9 90 90 S 8 13 29.92 1013 N/A 0.00 0.00
2:15 am 02:15 Cloudy 73 22.9 70 21.1 90 90 S 6 9 29.92 1013 10 16 0.00 0.00
2:35 am 02:35 Cloudy 73 22.9 70 21.2 90 90 S 6 9 29.92 1013 10 16 0.00 0.00
2:55 am 02:55 Cloudy 73 22.6 70 21 91 91 SSE 6 9 29.92 1013 10 16 0.00 0.00
3:15 am 03:15 Cloudy 72 22.4 70 20.9 91 91 SSE 6 9 29.91 1013 10 16 0.00 0.00
3:35 am 03:35 Cloudy 72 22.4 70 20.9 91 91 SSE 7 11 29.92 1013 10 16 0.00 0.00
3:55 am 03:55 Cloudy 72 22.4 70 20.9 91 91 SE 7 11 29.92 1013 10 16 0.00 0.00
4:15 am 04:15 Cloudy 72 22.2 69 20.7 91 91 SE 8 13 29.91 1013 10 16 0.00 0.00
4:35 am 04:35 Cloudy 72 22.1 69 20.7 92 92 SSE 7 11 29.91 1013 10 16 0.00 0.00
4:55 am 04:55 Cloudy 72 22 69 20.7 92 92 SSE 6 9 29.92 1013 7 11 0.00 0.00
5:15 am 05:15 Cloudy 72 22.3 70 20.9 92 92 SSE 6 9 29.92 1013 10 16 0.00 0.00
5:35 am 05:35 Mostly Cloudy 72 22.1 69 20.8 92 92 SE 7 11 29.92 1013 10 16 0.00 0.00
6:00 am 06:00 Partly Cloudy 72 22 70 21 94 94 SE 6 9 29.93 1014 10 16 0.00 0.00
6:52 am 06:52 Partly Cloudy 70 21 68 20 94 94 E 3 6 29.95 1014 10 16 0.00 0.00
7:55 am 07:55 Mostly Cloudy 73 23 70 21 89 89 ESE 12 19 29.98 1015 10 16 0.00 0.00
8:50 am 08:50 Mostly Cloudy 79 26 72 22 79 79 SE 12 19 30.00 1016 10 16 0.00 0.00
9:50 am 09:50 Mostly Cloudy 79 26 70 21 74 74 SE 12 19 30.01 1016 10 16 0.00 0.00
10:45 am 10:45 Mostly Cloudy 79 26 70 21 74 74 SE 10 17 30.01 1016 10 16 0.00 0.00
11:45 am 11:45 Mostly Cloudy 82 28 68 20 62 62 SE 14 22 30.03 1017 10 16 0.00 0.00
12:50 pm 12:50 Mostly Cloudy 86 30 68 20 55 55 SSE 15 24 30.02 1017 10 16 0.00 0.00
1:45 pm 13:45 Mostly Cloudy 84 29 66 19 55 55 SSE 16 26 30.00 1016 10 16 0.00 0.00
2:47 pm 14:47 Mostly Cloudy 88 31 66 19 49 49 S 13 20 29.96 1015 10 16 0.00 0.00
3:50 pm 15:50 Partly Cloudy 86 30 68 20 55 55 S 12 19 29.94 1014 10 16 0.00 0.00
4:50 pm 16:50 Partly Cloudy 84 29 66 19 55 55 SSW 16 26 29.94 1014 10 16 0.00 0.00
5:45 pm 17:45 Partly Cloudy 84 29 66 19 55 55 undefined N/A 29.94 1014 10 16 0.00 0.00
6:51 pm 18:51 Mostly Sunny 82 28 66 19 58 58 SSW 12 19 29.93 1014 10 16 0.00 0.00
7:45 pm 19:45 Mostly Sunny 79 26 68 20 70 70 S 8 13 29.94 1014 10 16 0.00 0.00
8:47 pm 20:47 Mostly Clear 70 21 66 19 88 88 SSE 8 13 29.95 1014 10 16 0.00 0.00
9:55 pm 21:55 Mostly Clear 70 21 68 20 94 94 SSE 3 6 29.97 1015 10 16 0.00 0.00
10:15 pm 22:15 Clear with Mist and Fog 70 21.3 69 20.3 94 94 SSE 3 6 29.98 1015 7 11 0.00 0.00
10:35 pm 22:35 Clear with Mist and Fog 71 21.4 69 20.5 95 95 SSE 5 7 29.99 1016 7 11 0.00 0.00
10:55 pm 22:55 Clear with Mist and Fog 70 21 68 20.1 95 95 SSE 6 9 29.99 1016 5 8 0.00 0.00
11:15 pm 23:15 Clear with Mist and Fog 70 21.1 69 20.3 95 95 SSE 3 6 30.00 1016 4 6 0.00 0.00
11:35 pm 23:35 Clear with Mist and Fog 69 20.7 68 19.9 95 95 Calm 29.99 1016 4 6 0.00 0.00
11:55 pm 23:55 Mostly Cloudy with Mist and Fog 69 20.7 68 19.9 95 95 Calm 29.99 1016 1 2 0.00 0.00

Powered by AerisWeather